SPHEREX DEB, 63332

Orbit data source: Space-Track

SPHEREX DEB, 63332 is space debris in SSO originally from a launch on Wed, 12 Mar 2025 UTC launched from the Air Force Western Test Range (AFWTR). Debris objects in space refer to the collection of defunct objects orbiting the Earth. Examples of debris include non-operational satellites, rocket bodies, and fragments generated from explosions, collisions, or faulty payload assembly.

Loading next visibility...
Identifier
63332, 2025-047F
Orbit
SSO
Country
Flag of USUS
Related business
Manufacturer
BAEB
Mission
Spacecraft
Bus & Motor
SPHEREX, Unknown motor
Mass
~5 kg wet, ~5 kg dry
Launch date (UTC)
2025-03-12 (2 years ago)
Launch vehicle
Unknown
Launch site
Air Force Western Test Range (AFWTR)
Object type
Payload
Rocket body
Debris
Shape & HBR
Cyl, 0.3 m
Radar Cross Section
0.188 m², Medium (>0.1 m² and < 1m²)

Expand to show TLE details & history
Last TLE update: 6 hours ago

TLE from 6 hours ago
0 SPHEREX DEB
1 63332U 25047F   26257.94405356  .00005737  00000-0  73278-3 0  9995
2 63332  97.9519  84.5968 0005835 236.9750 123.0903 14.81797825 80404
Epoch: 2026-09-14T22:39Z
TLE epoch observation values (Epoch: 2026-09-14T22:39:26.227Z)
Latitude
0.00001°
Longitude
110.82043°
Altitude
628.91 km
Speed
7.543 km/s
True Right ascension
05h 38m 23s
True Declination
0° 00' 00"
Sunlit
Object was in daylight at epoch
Visualization orbit readout
Latitude
Unknown
Longitude
Unknown
Altitude
Unknown
Speed
Unknown
Apparent Right ascension
Unknown
Apparent Declination
Unknown
Sunlit
N/A
Visualization observer readout
Local Sidereal Time
21:09:51
Azimuth
Unknown
Elevation
Unknown
Doppler factor
Unknown
Orbital elements
Apogee altitude
624.78 km
Perigee altitude
616.612 km
Semi-major axis
6,998.833 km
Eccentricity
0.00058
Inclination
97.9519°
RAAN
84.5968°
Arg. of periapsis
236.975°
True anomaly
123.1463°
Mean anomaly
123.0903°
Eccentric anomaly
123.1183°
Mean motion
3.70685 °/min
Orbital period
97.12 mins
BSTAR
0.00073278
Loading maneuver chart data...
Computing Atmospheric mass density...
Loading historical data...
Loading historical data...
Loading historical data...
Loading historical data...
Loading historical data...
Loading historical data...
Loading historical data...
Other satellites on launch #47 in the year 2025 (2025-03-12 UTC)

Documentation

Showing up to 5 results
|